Orbital elements:
    C/2008 J1 (Boattini)
Epoch 2008 Aug. 2.0 TT = JDT 2454680.5
T 2008 July 13.26777 TT                                 MPC
q   1.7242413            (2000.0)            P               Q
z  +0.0061351      Peri.   68.12609     +0.46026129     +0.12053105
 +/-0.0000173      Node   273.41822     -0.64246859     +0.72896975
e   0.9894216      Incl.   61.77910     +0.61269376     +0.67385114
Residuals in seconds of arc
080502 703 (2.2-  3.0-)   080528 461  0.3-  0.1+    080622 B20  0.2+  0.3-
080502 703 (2.1-  2.9-)   080528 461  0.2-  0.3+    080622 B20  0.0   0.0
080502 703 (2.1-  3.3-)   080528 461  0.3-  0.2+    080622 939  0.2+  0.3-
080502 703 (0.9-  3.2-)   080528 461  0.2-  0.4+    080622 939  0.2+  0.3-
080502 900  0.3+  0.4+    080528 461  0.4-  0.2+    080622 939  0.3+  0.3-
080502 900  0.2+  0.4+    080528 461  0.2-  0.2+    080623 J47  0.1-  0.2+
080502 900  0.0   0.4+    080528 461  0.2-  0.2+    080623 J47  0.0   0.1+
080502 900  0.1-  0.2+    080528 461  0.2-  0.3+    080623 J47  0.3+  0.3+
080502 900  0.1+  0.1-    080528 461  0.2-  0.2+    080623 B37  0.2+  0.5+
080502 300  0.1-  0.4-    080528 056  0.2+  0.2-    080623 B37  0.3+  0.4+
080502 300  0.1+  0.3-    080528 056  0.6-  0.1-    080623 B37  0.3+  0.4+
080502 300  0.4-  0.4+    080528 056  0.2-  0.2-    080623 B37  0.3+  1.7+
080502 300  0.3-  0.3+    080528 B42  0.3+  1.1+    080623 204  0.0   0.3+
080502 300  0.2-  0.0     080528 B42  0.2+  0.8+    080624 204  0.0   0.2+
080502 300  0.1-  0.0     080528 B42  0.5+  0.6+    080624 900  0.1-  0.1-
080502 900  0.2-  0.1+    080528 B42  0.3+  1.1+    080624 900  0.0   0.1-
080502 900  0.0   0.2+    080528 B42  0.0   1.0+    080624 A97  0.4-  0.6-
080503 595  0.5+  0.1+    080528 B42  0.2-  1.5+    080624 A97  0.2+  0.4-
080503 595  0.1-  0.4+    080529 J47  0.8-  1.5-    080624 A97  0.0   0.5-
080503 595  0.2+  0.3+    080529 J47  0.4-  1.4-    080624 A97  0.1-  0.7-
080503 198  0.2+  0.0     080529 J47  0.5-  1.3-    080626 213  0.6-  0.2-
080503 198  0.2+  0.4+    080529 J51  0.2+  0.5-    080626 213  0.8-  1.2-
080503 A17  0.7-  0.4+    080529 J51  0.4+  0.5-    080626 213  0.6-  0.4+
080503 198  0.3+  0.1+    080529 J51  0.3+  0.2-    080627 J45 (0.2-  2.3-)
080503 473  0.1-  0.1-    080529 213  0.1+  0.2-    080627 J45 (0.3-  2.3-)
080503 A17  0.4+  0.0     080529 213  0.4+  0.5-    080627 A77  0.2+  0.4-
080503 198  0.3+  0.1+    080529 213  0.4+  0.3-    080627 A77  0.1+  0.2-
080503 A17  0.4-  0.1-    080530 J45 (0.8-  4.8-)   080627 A77  0.1+  0.4-
080503 473  0.2+  0.2+    080530 J45 (0.9-  4.2-)   080628 J38  0.4+  0.9+
080503 473  0.1+  0.3-    080530 B37  0.4+  0.7+    080628 J38  0.5+  0.8+
080503 510  0.1+  0.5+    080530 B37  0.3+  0.2+    080628 J38  0.2+  1.0+
080503 235  0.2+  0.0     080530 B37  0.4+  0.9+    080628 J52  0.0   0.5-
080503 510  0.1+  0.9+    080530 B37  1.2+  0.1+    080628 J52  0.3+  0.3-
080503 A55  0.1-  0.1-    080530 056  0.0   0.5-    080628 J52  0.2+  0.2-
080503 A55  0.2-  0.5+    080530 056  0.0   0.6-    080628 232  0.4+  0.1+
080503 A55  0.0   0.0     080530 056  0.6-  0.4-    080628 232  0.6+  0.2+
080503 235  0.2+  0.1+    080531 H45  0.1+  0.1-    080628 232  0.6+  0.2+
080503 A55  0.0   0.2+    080531 H45  0.1-  0.1-    080628 B19  0.1+  1.7-
080503 510  0.1+  1.0+    080531 H45  0.1-  0.2-    080628 B19  0.1-  1.6-
080503 B20  0.3-  0.5+    080531 H45  0.1-  0.3-    080628 B19  0.2+  1.7-
080503 B20  0.2-  0.4+    080531 H45  0.0   0.1-    080628 213  0.3+  0.2+
080503 B20  0.2+  0.4+    080601 A97  0.4-  0.9-    080628 213  0.0   0.0
080503 682  0.4+  1.1+    080601 A97  0.3-  1.0-    080628 213  0.1-  0.3-
080503 682  0.8+  1.3+    080601 A97  0.2-  0.8-    080628 B20  0.1+  0.0
080503 349  0.3+  0.2+    080601 A97  0.0   0.8-    080628 B20  0.0   0.1-
080503 349  0.2+  0.2+    080601 A97  0.3-  0.9-    080628 B20  0.1-  0.1-
080503 349  0.2+  0.1-    080601 J47  0.1-  0.0     080629 J52  0.2+  0.2-
080503 349  0.1+  0.1+    080601 J47  0.2-  0.1+    080629 J52  0.1+  0.0
080503 367  0.7+  0.2+    080601 J47  0.0   0.2+    080629 J52  0.3+  0.0
080503 367  0.6+  1.1+    080601 056  0.1-  0.4-    080629 B19 (0.1+  2.0-)
080503 367  0.7+  0.4-    080601 056  0.2-  0.3-    080629 B19  0.1+  1.6-
080503 367  0.4+  0.0     080601 056  0.2-  0.4-    080629 B19  0.1-  1.7-
080503 900  0.1-  0.1+    080601 056  0.5-  0.1+    080629 442  0.0   0.2+
080503 900  0.3+  0.3+    080601 056  0.4-  0.2-    080630 A77  0.1+  0.1-
080504 510  1.1-  0.1+    080603 A97  0.2-  0.6-    080630 A77  0.2+  0.1-
080504 510  0.3+  0.5+    080603 A97  0.2+  0.5-    080630 A77  0.3+  0.2-
080504 204  0.2-  0.2+    080603 A97  0.4-  0.6-    080630 349  0.0   0.0
080504 510  0.4-  0.4+    080603 A97  0.6-  0.5-    080630 349  0.0   0.1-
080504 204  0.3-  0.3+    080603 H45  0.0   0.3-    080630 349  0.1+  0.3-
080504 204  0.2-  0.1+    080603 H45  0.0   0.3-    080701 629  0.7-  0.2-
080504 850  0.2-  0.0     080603 H45  0.1-  0.2-    080701 629  0.6-  0.0
080504 850  0.2-  0.8-    080603 H45  0.1-  0.2-    080701 629  0.7-  0.0
080504 850  0.0   0.0     080603 H45  0.1-  0.4-    080701 235  0.1+  0.3-
080504 850  0.2+  0.3+    080604 945  0.4+  1.0+    080701 939  0.3+  0.3-
080505 A77  0.1-  0.3-    080604 945  0.4+  0.9+    080701 939  0.2+  0.2-
080505 A77  0.1-  0.2-    080604 945  0.4+  0.7+    080701 939  0.3+  0.2-
080505 A77  0.4-  0.2-    080604 945  0.5+  1.1+    080702 585  0.2-  0.0
080505 850  0.1+  0.1-    080604 945  1.1+  1.4+    080702 585  0.1-  0.0
080505 850  0.1-  0.1-    080605 J40  0.0   0.5+    080702 585  0.2-  0.0
080505 850  0.3+  0.0     080605 J40  0.1-  0.8+    080702 585  0.4-  0.2+
080505 850  0.0   0.6+    080605 J40  0.0   0.5+    080702 585  0.3-  0.1-
080505 850  0.1-  0.0     080605 J40  0.2-  0.4+    080702 585  0.0   0.6+
080505 850  0.1+  0.0     080606 900  0.2-  0.0     080702 585  0.4-  0.3+
080505 H45  0.1+  0.2+    080606 367  0.2-  0.5-    080702 585  0.1-  0.0
080505 H45  0.3+  0.2+    080606 367  0.3-  0.8-    080702 130  0.3-  0.0
080505 H45  0.2+  0.2+    080606 900  0.7+  0.6+    080702 130  0.1-  0.3+
080505 H45  0.1+  0.1+    080606 367  0.0   0.3-    080702 130  0.1-  0.6+
080505 H45  0.2+  0.2+    080606 585 (0.7-  3.1-)   080702 130  0.2-  0.0
080505 367  0.0   0.6-    080606 585  0.1-  0.0     080702 J24  0.8+  0.1+
080505 367  0.5-  0.4-    080606 945  0.1-  0.6+    080702 J24  0.0   0.1+
080505 D81  0.1-  0.3-    080606 945  0.1+  0.5+    080702 J24  0.1+  0.4-
080505 D81  0.2-  0.1-    080606 945  0.1-  0.2+    080702 H45  0.1-  0.1-
080505 D81  0.3-  0.7-    080606 585  1.0-  1.4-    080702 H45  0.1-  0.1-
080505 D81  0.1-  0.6-    080606 945  0.3-  0.4+    080702 H45  0.1+  0.1-
080505 900  0.2-  0.0     080606 945  0.0   0.6+    080702 H45  0.1+  0.0
080505 367  0.4-  0.3-    080606 585 (0.9-  2.9-)   080702 H45  0.0   0.2-
080505 900  0.2-  0.4-    080606 585  0.4-  0.0     080702 349  0.0   0.2+
080505 585  0.7+  1.2-    080606 585 (1.2-  5.2-)   080702 349  0.3-  0.1-
080505 585  0.2+  0.0     080607 J28  0.1+  1.1-    080702 349  0.2-  0.2+
080505 585  0.0   0.6+    080607 J28  1.0-  1.9-    080702 B42  0.0   1.8+
080505 585  0.2+  0.0     080607 J28  0.7-  0.6-    080702 B42  0.0   0.9+
080505 585  1.5+  0.3-    080607 939  0.2+  0.6-    080702 B42  0.2+  1.3+
080505 585 (0.8-  3.7-)   080607 939  0.1+  0.6-    080702 B42  0.0   1.1+
080505 585  1.0-  0.9+    080607 939  0.1-  0.6-    080702 B42  0.1+  0.7+
080505 585 (0.8+  2.6-)   080607 J38  0.3+  0.8+    080703 945  0.0   0.8+
080506 215  0.0   0.2-    080607 J38  0.3+  0.6+    080703 945  0.2+  1.0+
080506 215  0.0   0.2-    080607 J38  0.5+  0.6+    080703 945  0.3+  0.0
080506 215  0.0   0.1-    080607 349  0.3-  1.5-    080703 945  0.1+  0.8+
080506 510  0.4-  0.2-    080607 349  0.0   1.4-    080703 945  0.1+  0.8+
080506 510  0.3-  0.3+    080607 349  0.0   1.2-    080703 945  0.2+  0.7+
080506 510  0.2-  0.2-    080607 945  0.1-  0.4+    080703 945  0.6+  0.7+
080506 850  0.0   0.3-    080607 945  0.3+  0.7+    080703 939  0.1+  0.2+
080506 850  0.1+  0.5-    080607 945  0.8+  0.3+    080703 939  0.1+  0.3+
080506 850  0.3+  0.4-    080607 945  0.3+  0.4+    080703 939  0.0   0.2+
080506 704  0.5-  1.9-    080607 945  0.1-  0.4+    080704 232  0.3-  0.2-
080506 850  0.2+  0.4-    080608 J45 (0.7-  4.8-)   080704 232  0.0   0.4+
080506 704  0.7-  1.3-    080608 J45 (0.8-  4.6-)   080704 232  0.1+  0.0
080506 850  0.2-  0.4-    080608 J39  0.1+  0.6+    080704 213  0.1-  0.2+
080506 704  0.9-  1.9-    080608 J39  0.1+  1.1-    080704 213  0.4+  0.1-
080506 704 (0.9-  2.4-)   080608 J39  0.2-  0.9-    080704 213  0.1+  0.1+
080506 704  1.5-  1.7-    080608 J39  0.2+  0.5-    080705 B20  0.2-  0.2-
080506 349  0.0   0.2-    080608 J47 (0.1-  2.5-)   080705 B20  0.1-  0.4-
080506 349  0.1+  0.1-    080608 J47 (0.2-  2.5-)   080705 B20  0.1-  0.6-
080506 349  0.1-  0.3-    080608 J47 (0.3-  2.5-)   080705 900  0.1-  0.1+
080506 349  0.1-  0.2-    080608 J47 (0.2-  2.3-)   080705 900  0.0   0.2-
080507 J24  0.1-  0.2+    080608 J47 (0.0   2.3-)   080705 939  0.2+  0.2-
080507 J24  0.1+  0.2+    080610 J45 (0.6-  7.3-)   080705 939  0.3+  0.2-
080507 J24  0.2+  0.5+    080610 J45 (1.0-  7.4-)   080705 939  0.3+  0.1-
080507 673  0.4+  1.0+    080610 235  0.7-  1.1-    080706 J53  0.1+  0.3+
080507 673  0.1+  0.8+    080611 J93  0.1+  0.1+    080706 J53  0.2+  0.3+
080507 673  0.5+  0.7+    080611 J93  0.2+  0.2+    080706 J53  0.1+  0.2+
080507 673  0.4+  0.7+    080611 J93  0.6-  0.0     080706 B51  0.1-  0.4+
080508 510  0.7+  0.1+    080611 213  0.4-  0.1+    080706 B51  0.2-  0.4+
080508 510  0.1+  0.2-    080611 213  0.5+  0.7-    080706 B51  0.1-  0.4+
080508 510  0.2-  0.2+    080611 213  0.1-  0.2-    080706 J47  0.1-  0.3-
080510 017  0.0   1.3-    080611 J64  0.1-  0.9-    080706 J47  0.1+  0.7-
080510 017  0.1-  1.2-    080611 J64  0.0   0.8-    080706 J47  0.3+  0.1+
080510 017  0.0   1.4-    080611 J64  0.2+  0.5-    080706 J47  0.0   0.0
080510 017  0.2-  0.9-    080612 J45 (0.7-  4.9-)   080707 H45  0.0   0.2-
080510 017  0.0   1.2-    080612 J51  0.1-  0.4-    080707 H45  0.0   0.2-
080511 118  0.1-  0.1-    080612 J45 (0.7-  5.0-)   080707 H45  0.0   0.2-
080511 118  0.2-  0.4-    080612 J51  0.2-  0.3-    080707 H45  0.1-  0.2-
080511 118  0.0   0.1+    080612 J51  0.4-  0.3-    080707 H45  0.1-  0.2-
080511 118  0.4+  0.1-    080612 704 (2.4-  0.5-)   080707 H45  0.0   0.1-
080511 017  0.5-  0.3-    080612 704  1.1+  1.3-    080707 B09  0.1+  0.7+
080511 017  0.4-  0.7-    080612 704  0.4-  1.0-    080707 458  0.1-  0.5-
080511 017  0.4-  0.6-    080612 704 (2.0-  1.8-)   080707 458  0.3-  0.1-
080511 017  0.5-  0.7-    080612 704  0.1+  0.3-    080707 473  0.1+  0.0
080511 017  0.5-  0.5-    080612 D81  0.1-  0.6-    080707 J47  0.2+  0.0
080511 J47  0.1-  0.2+    080612 D81  0.1-  0.4-    080707 J47  0.1+  0.0
080511 J47  0.1-  0.2+    080612 D81  0.2-  0.4-    080707 J47  0.2+  0.1+
080511 J47  0.1+  0.3+    080612 D81  0.0   0.2-    080707 J47  0.1+  0.0
080511 J47  0.1-  0.3+    080612 349  0.1-  0.5+    080708 B66  0.1+  0.2-
080511 J47  0.1-  0.4+    080612 349  0.2-  0.6+    080708 J53  0.3+  0.5+
080511 J47  0.1+  0.3+    080612 349  0.2-  0.3+    080708 J38  0.2+  0.7+
080511 467  0.1-  0.1-    080612 B20  0.0   0.1-    080708 J51  0.2+  0.2-
080511 467  0.1-  0.2+    080612 B20  0.3-  0.1+    080708 J53  0.3+  0.4+
080511 467  0.3+  0.1-    080612 B20  0.1-  0.2-    080708 J38  0.3+  0.6+
080511 467  0.1+  0.2-    080612 B49  0.3-  0.3-    080708 J38  0.3+  0.6+
080511 349  0.0   0.2+    080612 B49  0.3-  0.6-    080708 J53  0.1+  0.3+
080511 349  0.1-  0.2+    080613 J40  0.6-  1.0+    080708 945  0.2-  0.5+
080511 056  0.1+  0.1+    080613 J40  1.1+  1.4+    080708 J51  0.1+  0.5-
080511 056  0.0   0.3+    080613 J40  0.4-  1.0+    080708 945  0.0   0.6+
080511 056  0.1-  0.1+    080613 J40  0.4+  0.8+    080708 945  0.0   0.5+
080512 945  0.8-  0.9+    080613 H45  0.0   0.4-    080708 945  0.0   0.6+
080512 945  0.4+  0.9+    080613 H45  0.0   0.2-    080708 J51  0.1+  0.1-
080512 945  0.5+  0.5+    080613 H45  0.0   0.2-    080708 945  0.2-  0.5+
080512 945  0.2+  0.7+    080613 H45  0.1-  0.4-    080708 B66  0.1-  0.2-
080512 945  0.2-  0.4+    080613 H45  0.1-  0.3-    080709 H45  0.1+  0.1-
080512 H45  0.1+  0.0     080613 900  0.0   0.2-    080709 H45  0.1+  0.5-
080512 H45  0.1+  0.2-    080613 900  0.1-  0.2-    080709 H45  0.1+  0.2-
080512 H45  0.1+  0.0     080613 A97  0.1+  0.3-    080709 H45  0.1+  0.3-
080512 H45  0.1+  0.1-    080614 A97  0.2+  0.7-    080709 H45  0.1+  0.3-
080512 H45  0.1+  0.1-    080614 A97  0.6+  0.5-    080709 H45  0.1+  0.3-
080512 300  0.2+  1.4-    080614 A97  0.4+  0.6-    080709 213  0.3-  0.5-
080512 300  0.1-  0.3+    080614 A97  0.3+  0.3-    080709 213  0.1-  0.4-
080512 300  0.6+  0.7-    080614 945  0.0   0.7+    080709 213  0.4-  0.6-
080512 300  0.1-  0.8-    080614 945  0.2-  0.9+    080709 J51  0.1-  0.2-
080512 300  0.8+  1.3-    080614 945  0.1+  0.9+    080709 J38  0.1+  1.3+
080513 510  0.1+  0.3-    080614 945  0.6-  0.7+    080709 J38  0.1+  0.7+
080513 510  0.1-  0.3+    080614 945  0.2+  1.2+    080709 J38  0.1-  0.3-
080513 510  0.2-  0.0     080614 J47  0.0   0.1-    080710 J51  0.1-  0.2-
080514 349  0.2-  0.1-    080614 J47  0.2-  0.1+    080710 J51  0.2+  0.0
080514 349  0.1-  0.2-    080614 J47  0.1+  0.2+    080710 945  0.2-  0.1+
080514 349  0.1-  0.0     080614 J47  0.1+  0.1-    080710 945  0.3-  0.3+
080514 900  0.1+  0.1-    080614 H06  0.4-  0.2-    080710 945  0.4-  0.2+
080514 900  0.2-  0.6-    080614 939  0.4+  0.6-    080710 945  0.4-  0.4+
080516 367  0.5-  0.6-    080614 939  0.3+  0.6-    080710 945  0.3-  0.3+
080516 367  0.6-  0.5-    080614 939  0.4+  0.6-    080710 B09  0.1+  0.1+
080516 367  0.6-  0.5-    080615 703  0.7-  1.2-    080710 J40  0.3+  1.8-
080517 H47  0.0   0.2+    080615 703  0.9-  1.5-    080710 J40  0.5-  0.1+
080517 H47  0.1-  0.3+    080615 703 (0.3-  2.5-)   080710 215  0.0   1.9-
080517 467  0.1-  0.2-    080615 703  1.8-  1.6-    080710 215  0.1-  1.9-
080517 467  0.1-  0.1-    080615 J70  0.4-  0.9+    080710 215 (0.2-  3.9-)
080517 467  0.4-  0.2-    080615 J70  0.0   0.9+    080710 J40  0.7-  0.8+
080518 J47  0.3+  0.2+    080615 J70  0.6+  1.4+    080710 A97  0.1+  0.2-
080518 J47  0.1+  0.0     080615 J70  0.2+  1.4+    080710 A97  0.1+  0.2-
080518 J47  0.0   0.1-    080615 J70  0.1-  0.7+    080710 A97  0.1+  0.1-
080518 J47  0.1-  0.2-    080615 J70  0.1-  1.0+    080710 A97  0.2+  0.2-
080518 J24  0.1-  0.4+    080615 J70  0.1-  1.1+    080710 A97  0.1+  0.2-
080518 J24  0.1+  0.3+    080616 J24  0.6+  1.9+    080710 J53  0.0   0.3+
080518 J24  0.4+  0.5+    080616 J24  0.0   1.1+    080710 J53  0.0   0.4+
080518 H06  0.4+  0.2-    080616 J24  0.4+  1.3+    080710 J53  0.1+  0.5+
080518 H06  0.2-  0.3-    080616 349  0.1+  0.2-    080710 A97  0.1+  0.1-
080519 673  0.1+  0.5+    080616 349  0.1-  0.2-    080711 H45  0.0   0.1-
080519 673  0.1-  0.4+    080616 349  0.1-  0.3-    080711 H45  0.1+  0.2-
080519 673  0.0   0.6+    080616 900  0.0   0.1-    080711 H45  0.0   0.2-
080519 673  0.3+  0.5+    080616 900  0.1+  0.4-    080711 H45  0.0   0.3-
080520 945  0.5+  1.2+    080618 J38  0.3+  0.9+    080711 H45  0.0   0.1-
080520 945  0.8+  1.2+    080618 J38  0.3+  0.9+    080711 H45  0.1-  0.0
080520 945  0.5+  1.3+    080618 J38  0.3+  0.9+    080711 367  0.2+  0.4+
080520 945  0.6+  1.2+    080619 945  0.1-  0.5+    080711 367  0.0   0.1+
080520 945  0.6+  1.3+    080619 945  0.1-  1.0+    080711 367  0.0   0.3+
080520 900  0.1-  0.2-    080619 945  0.1-  0.1+    080711 B42  0.1-  0.5+
080520 900  0.1+  0.3-    080619 945  0.1-  0.5+    080711 B42  0.3-  0.7+
080521 585  0.0   0.0     080619 945  0.2-  0.4+    080711 B42  0.5-  0.7+
080521 585  0.3-  0.1+    080619 939  0.1+  0.4-    080711 B42  0.6-  0.6+
080521 585  0.0   0.3-    080619 939  0.2+  0.2-    080711 939  0.3-  0.1+
080521 585  0.3-  0.1-    080619 939  0.3+  0.0     080711 B59  0.3-  0.2-
080521 585  0.0   0.2+    080619 A97 (2.4+  1.6-)   080711 B59  0.1+  0.3-
080521 585  0.4-  0.8+    080619 A97  0.1+  1.0-    080711 939  0.3-  0.0
080521 585  0.2+  0.5-    080619 A97  0.3+  0.7-    080711 B59  0.2-  0.2-
080521 J47  0.1-  0.1+    080619 A97  0.8+  0.1+    080711 939  0.4-  0.0
080521 J47  0.1-  0.1-    080619 A97  0.6+  1.0-    080712 H45  0.0   0.2-
080521 J47  0.1-  0.1+    080619 213  0.4+  0.0     080712 H45  0.1-  0.2-
080522 J40  0.5+  0.4+    080619 213  0.4+  0.1-    080712 H45  0.1-  0.3-
080522 J40  0.4+  0.6+    080619 A97  0.3-  0.8-    080712 H45  0.0   0.2-
080522 J40  0.1+  0.8+    080619 213  0.1+  0.1+    080712 H45  0.0   0.2-
080522 J40  0.1-  0.7+    080620 J51  0.4+  0.0     080712 H45  0.0   0.1-
080523 J47  0.1+  0.0     080620 J51  0.3+  0.1-    080712 H45  0.0   0.2-
080523 J47  0.2-  0.3-    080620 J51  0.3+  0.1+    080712 379  0.4-  0.2+
080523 J47  0.3-  0.4-    080620 B37  0.0   0.9+    080712 379  0.6-  0.4-
080523 J47  0.3-  0.4+    080620 B37  0.3+  0.8+    080712 379  0.1-  0.1+
080523 J51  0.2-  0.1-    080620 B37  0.0   0.8+    080712 900  0.2-  0.0
080523 J51  0.1+  0.0     080620 B37  0.1-  0.6+    080712 379  0.7-  0.4-
080523 J51  0.4-  0.1-    080620 204  0.0   0.3+    080712 900  0.2-  0.3-
080526 945  0.2+  0.9+    080620 204  0.1+  0.0     080713 J27  0.4-  0.3+
080526 945  0.3-  0.4+    080621 232  0.5+  0.1-    080713 J27  0.1+  0.2+
080526 945  0.1+  0.4+    080621 232  0.4+  0.1-    080713 J27  0.4-  0.2+
080526 945  0.1+  0.3+    080621 232  0.7+  0.1-    080713 379  0.1+  0.4+
080526 945  0.0   0.7+    080621 B37  0.5+  0.6+    080713 379  0.2-  0.5+
080526 461  0.2-  0.1+    080621 B37  0.5+  0.7+    080713 379  0.0   0.2-
080526 461  0.2-  0.3+    080621 B37  0.6+  0.4+    080713 B20  0.2-  0.6-
080526 461  0.2-  0.1+    080621 213  0.1+  0.0     080713 B20  0.2-  0.5-
080526 461  0.3-  0.1+    080621 213  0.2-  0.0     080713 B20  0.1+  0.5-
080526 349  0.1+  0.2-    080621 213  0.0   0.1+    080714 945  0.1+  0.5+
080526 349  0.0   0.3-    080621 939  0.4+  0.2-    080714 945  0.0   0.6+
080526 349  0.1+  0.2-    080621 629  0.1-  0.1-    080714 945  0.4-  0.3+
080526 900  0.0   0.5-    080621 939  0.4+  0.2-    080714 945  0.2+  0.5+
080526 900  0.1+  0.2-    080621 629  0.0   0.2+    080714 945  0.2+  0.4+
080527 118  0.0   0.4-    080621 629  0.2-  0.1+    080715 J51  0.2-  0.2-
080527 118  0.0   0.4-    080621 629  0.2-  0.1+    080715 J51  0.1+  0.2-
080527 118  0.0   0.1-    080622 939  0.4+  0.0     080715 J51  0.2+  0.1+
080527 118  0.2-  0.3-    080622 J51  0.2+  0.0     080715 J47  0.5+  0.2-
080527 118  0.1+  0.3-    080622 J51  0.0   0.1+    080715 J47  0.1-  0.7-
080527 106  0.1-  0.6-    080622 J51  1.3-  0.1-    080715 J47  0.0   0.5-
080527 106  0.2-  0.8-    080622 J45 (0.0   3.2-)   080715 H45  0.1-  0.5-
080527 106  0.3-  0.5-    080622 J53  0.0   0.2+    080715 H45  0.0   0.4-
080527 106  0.0   0.4-    080622 J53  0.1-  0.2+    080715 H45  0.0   0.3-
080528 461  0.1-  0.3+    080622 J53  0.2+  0.3+    080715 H45  0.0   0.4-
080528 461  0.1-  0.2+    080622 J45 (0.1-  2.9-)   080715 H45  0.0   0.6-
080528 461  0.2-  0.2+    080622 B20  0.1+  0.2+    080715 H45  0.1+  0.4-

